FW1655 Weather Reports


Display with metric or nautical units.
time (UTC)temp
F
wind
direction
speed
MPH
gust
MPH
rain 1hr
in
rain 24hr
in
rain mn
in
humidity
%
barometer
mb
20180918193329 69 6 0.0 0.0 0.00 1.93 1.93 100 1035.0
20180918191828 69 6 0.0 0.0 0.00 1.93 1.93 100 1034.8
20180918190326 69 8 0.0 0.0 0.01 1.93 1.93 100 1034.4
20180918184826 69 8 0.0 0.0 0.02 1.93 1.93 100 1034.0
20180918183326 69 8 0.0 0.0 0.03 1.93 1.93 100 1034.7
20180918181825 70 9 0.0 0.0 0.04 1.93 1.93 100 1034.3
20180918180329 69 9 0.0 0.0 0.03 1.92 1.92 100 1034.3
20180918174827 69 335 0.0 0.0 0.02 1.91 1.91 100 1034.3
20180918173326 69 316 0.0 0.0 0.02 1.90 1.90 100 1034.2
20180918171823 69 303 0.0 0.0 0.01 1.89 1.89 100 1034.6
20180918170323 69 341 0.0 0.0 0.03 1.89 1.89 100 1034.3
20180918164823 69 16 0.0 0.0 0.04 1.89 1.89 100 1034.6
20180918163322 69 297 0.0 0.0 0.04 1.88 1.88 100 1034.6
20180918161824 69 246 0.0 0.0 0.11 1.88 1.88 100 1034.7
20180918160323 69 243 0.0 0.0 0.35 1.86 1.86 100 1034.8
20180918154826 68 294 0.0 0.0 0.70 1.85 1.85 100 1034.6
20180918153320 68 309 0.0 0.0 1.26 1.84 1.84 100 1034.5
20180918151823 68 326 0.0 1.0 1.24 1.77 1.77 100 1034.6
20180918150318 69 22 0.0 3.0 1.07 1.51 1.51 100 1035.0
20180918144815 70 325 0.0 8.0 0.67 1.11 1.11 100 1034.3
20180918143314 74 262 0.0 4.0 0.14 0.57 0.57 100 1033.6
20180918141909 74 248 0.0 6.0 0.10 0.54 0.54 100 1034.1
20180918140307 74 265 0.0 1.0 0.00 0.44 0.44 100 1034.5
20180918134804 74 265 0.0 0.0 0.01 0.44 0.44 100 1034.7
20180918093226 70 207 0.0 0.0 0.20 0.32 0.32 100 1038.6
20180918091727 70 207 0.0 0.0 0.21 0.31 0.31 100 1038.7
20180918090224 70 207 0.0 0.0 0.16 0.26 0.26 100 1039.1
20180918084722 70 207 0.0 0.0 0.08 0.15 0.15 100 1039.3
20180918083220 70 183 0.0 0.0 0.05 0.12 0.12 100 1039.2
20180918081719 70 183 0.0 0.0 0.03 0.10 0.10 100 1039.6
20180918080217 70 183 0.0 0.0 0.03 0.10 0.10 100 1039.9
20180918074715 70 183 0.0 0.0 0.03 0.07 0.07 100 1040.0
20180918073212 70 184 0.0 0.0 0.05 0.07 0.07 100 1040.3
20180918071713 70 183 0.0 0.0 0.05 0.07 0.07 100 1040.4
20180918070219 70 183 0.0 0.0 0.05 0.07 0.07 100 1040.6
20180918064706 70 182 0.0 0.0 0.02 0.04 0.04 100 1040.8
20180918063205 70 231 0.0 0.0 0.00 0.02 0.02 100 1041.0
20180918061702 70 213 0.0 0.0 0.01 0.02 0.02 100 1041.1
20180918060200 71 249 0.0 0.0 0.02 0.02 0.02 100 1041.2
20180918054658 71 224 0.0 0.0 0.02 0.02 0.02 100 1041.3
20180918053156 71 205 0.0 1.0 0.02 0.02 0.02 100 1041.5
20180918051657 71 245 0.0 0.0 0.01 0.01 0.01 100 1041.6
20180918050153 71 281 0.0 0.0 0.00 0.00 0.00 100 1041.7
20180918044818 72 239 0.0 0.0 0.00 0.00 0.00 99 1041.7
20180918043152 72 228 0.0 1.0 0.00 0.00 0.00 99 1041.8
20180918041648 72 185 0.0 1.0 0.00 0.00 0.00 99 1041.9
20180918040147 72 144 0.0 1.0 0.00 0.00 0.00 98 1042.0
20180918034745 72 253 0.0 0.0 0.00 0.00 0.00 98 1042.2
20180918033508 72 234 0.0 4.0 0.00 0.00 0.00 98 1042.3
20180918021637 72 120 0.0 1.0 0.00 0.00 0.00 95 1042.9
20180918020138 72 160 0.0 8.0 0.00 0.00 0.00 94 1042.9
20180918014725 73 238 0.0 1.0 0.00 0.00 0.00 94 1043.1
20180918013134 73 221 0.0 2.0 0.00 0.00 0.00 93 1043.2
20180918011633 73 203 0.0 4.0 0.00 0.00 0.00 93 1043.3
20180918010211 73 232 0.0 4.0 0.00 0.00 0.00 92 1043.5
20180918004634 73 252 0.0 1.0 0.00 0.00 0.00 91 1043.7
20180918003151 73 201 0.0 2.0 0.00 0.00 0.00 90 1043.8
20180918001627 74 221 0.0 1.0 0.00 0.00 0.00 89 1043.9
20180918000226 74 205 0.0 3.0 0.00 0.00 0.00 88 1043.8
20180917234626 74 245 0.0 1.0 0.00 0.00 0.00 86 1043.8
20180917233143 74 167 0.0 1.0 0.00 0.00 0.00 84 1043.9
20180917231626 75 208 0.0 6.0 0.00 0.00 0.00 83 1044.0
20180917230239 75 253 0.0 1.0 0.00 0.00 0.00 80 1044.0
20180917222100 76 223 0.0 1.0 0.00 0.00 0.00 76 1044.3
20180917220118 77 264 0.0 0.0 0.00 0.00 0.00 75 1044.6
20180917214730 77 276 0.0 1.0 0.00 0.00 0.00 73 1044.6
20180917213117 77 255 0.0 3.0 0.00 0.00 0.00 72 1044.5
20180917211626 78 236 0.0 2.0 0.00 0.00 0.00 71 1044.5
20180917210125 79 255 0.0 6.0 0.00 0.00 0.00 70 1044.5
20180917204629 80 249 0.0 6.0 0.00 0.00 0.00 68 1044.4
20180917203118 80 219 0.0 1.0 0.00 0.00 0.00 68 1044.3
20180917201658 80 288 0.0 0.0 0.00 0.00 0.00 64 1044.5
20180917200120 80 246 0.0 4.0 0.00 0.00 0.00 63 1044.7
20180917194646 81 217 0.0 5.0 0.00 0.00 0.00 63 1045.0